[[{"header":{"parameterUnit":"m.s-1","parameterCategory":1,"la1":30.2991,"la2":30.254,"lo1":-89.0895,"lo2":-89.0444,"dy":0.0017,"dx":0.0017,"nx":28,"ny":28,"refTime":"2024-12-08T03:00:00:Z","depth":0,"parameterNumber":2,"parameterNumberName":"U-component_of_WINDS"},"data":[0,0,0,0,0,0,0,0,0,0,0,0,0,0,0,0,0,0,0,0,0,0,0,0,0,0,0,0,0,0,0,0,0,0,0,0,0,0,0,0,0,0,0,0,0,0,0,0,0,0,0,0,0,0,0,0,0,0,-1.3345,-1.3345,0,-1.3346,-1.3346,-1.3346,-1.3279,-1.3277,-1.3275,-1.3274,-1.3278,-1.328,-1.3282,0,0,0,0,0,0,0,0,0,0,0,0,0,-1.3288,-1.329,-1.3345,-1.3345,-1.3345,-1.3346,-1.3346,-1.3346,-1.3279,-1.3277,-1.3275,-1.3273,-1.3278,-1.328,-1.3282,0,0,0,0,0,0,0,0,0,0,0,0,0,-1.3304,-1.329,-1.3345,-1.3312,-1.3309,-1.3346,-1.3346,-1.3346,-1.328,-1.3277,-1.3274,-1.3272,-1.3277,-1.328,-1.3282,-1.3353,0,0,-1.3291,-1.3292,0,0,0,0,0,0,0,0,-1.3303,-1.3306,-1.3317,-1.3314,-1.3311,-1.331,-1.3328,-1.3349,-1.328,-1.3291,-1.3273,-1.327,-1.3291,-1.3293,-1.3299,-1.3354,-1.3354,-1.3291,-1.3293,-1.3294,-1.3295,0,0,0,0,0,0,0,-1.3302,-1.3306,-1.3346,-1.3317,-1.3313,-1.3298,-1.3297,-1.3332,-1.3306,-1.329,-1.3285,-1.3286,-1.3289,-1.3296,-1.3299,-1.3354,-1.3291,-1.3293,-1.3295,-1.3296,-1.3469,-1.3471,0,0,0,0,0,0,-1.3305,-1.3305,-1.3346,-1.3346,-1.33,-1.3301,-1.33,-1.3313,-1.3306,-1.3302,-1.3288,-1.3282,-1.3293,-1.3295,-1.3298,-1.3383,-1.3294,-1.3296,-1.3298,-1.3466,-1.3469,-1.3472,0,0,0,0,0,0,-1.3304,-1.3309,-1.3346,-1.3324,-1.3328,-1.3305,-1.332,-1.3314,-1.3321,-1.3304,-1.33,-1.33,-1.3291,-1.3295,-1.334,-1.3382,-1.3298,-1.33,-1.3462,-1.3467,-1.3471,-1.3551,0,0,0,0,0,0,-1.3303,-1.3309,-1.3335,-1.3325,-1.3329,-1.3387,-1.3322,-1.3316,-1.3326,-1.3319,-1.3314,-1.3311,-1.3289,-1.3337,-1.3343,-1.3384,-1.3302,-1.3458,-1.3464,-1.3469,-1.3545,-1.3558,-1.3569,0,0,0,0,0,-1.3301,-1.3358,-1.3337,-1.3342,-1.3361,-1.3389,-1.3392,-1.3364,-1.3329,-1.3356,-1.3345,-1.3311,-1.3376,-1.3342,-1.3349,-1.3391,-1.3456,-1.3463,-1.3469,-1.3539,-1.3555,-1.3569,0,0,0,0,0,0,-1.3375,-1.3356,-1.3333,-1.3388,-1.3391,-1.3378,-1.3411,-1.3382,-1.3395,-1.3388,-1.3355,-1.3354,-1.3406,-1.3402,-1.3365,-1.346,-1.341,-1.3418,-1.3461,-1.3476,-1.3488,-1.3489,-1.3304,0,0,0,0,0,-1.3398,-1.3421,-1.3404,-1.3455,-1.3457,-1.3434,-1.3445,-1.3424,-1.3426,-1.3427,-1.3419,-1.3423,-1.3445,-1.346,-1.3478,-1.3543,-1.3543,-1.3576,-1.3588,-1.3598,-1.3606,-1.3643,-1.3658,-1.3494,-1.3494,-1.3494,0,0,-1.3445,-1.3438,-1.3455,-1.3469,-1.3469,-1.3496,-1.3435,-1.3466,-1.3486,-1.3432,-1.3475,-1.3469,-1.3472,-1.3528,-1.3553,-1.3527,-1.3651,-1.3606,-1.3614,-1.3618,-1.3651,-1.3667,-1.3681,-1.3499,-1.3498,-1.3497,0,0,-1.3546,-1.3541,-1.3584,-1.3585,-1.3584,-1.3569,-1.3579,-1.357,-1.3565,-1.3607,-1.3567,-1.3591,-1.3628,-1.3632,-1.3639,-1.3741,-1.3711,-1.3748,-1.3812,-1.3848,-1.3861,-1.3872,-1.3912,-1.3926,-1.3756,-1.3756,-1.3756,0,-1.3606,-1.3643,-1.361,-1.3644,-1.3652,-1.3603,-1.3647,-1.3649,-1.3656,-1.3663,-1.3634,-1.368,-1.3678,-1.3736,-1.3761,-1.3767,-1.3779,-1.3749,-1.3861,-1.3872,-1.3883,-1.392,-1.3934,-1.376,-1.376,-1.3759,-1.3759,0,-1.3718,-1.3745,-1.3779,-1.3786,-1.3798,-1.3837,-1.3811,-1.3827,-1.3804,-1.3792,-1.3837,-1.3832,-1.385,-1.3861,-1.384,-1.3917,-1.3901,-1.3867,-1.3816,-1.3904,-1.3938,-1.3952,-1.3767,-1.3765,-1.3764,-1.3763,0,0,-1.3867,-1.3855,-1.3868,-1.3871,-1.3867,-1.3888,-1.3925,-1.3941,-1.3957,-1.3962,-1.3994,-1.4026,-1.3995,-1.4003,-1.3981,-1.4012,-1.4097,-1.3974,-1.3974,-1.4,-1.4184,-1.4212,-1.4229,-1.4075,-1.4078,-1.408,-1.4185,0,-1.3967,-1.4029,-1.4,-1.4066,-1.4092,-1.4045,-1.4077,-1.4079,-1.4068,-1.4089,-1.4077,-1.4102,-1.4057,-1.4062,-1.409,-1.408,-1.4134,-1.4072,-1.4108,-1.4109,-1.4112,-1.4246,-1.4276,-1.4375,-1.4198,-1.42,-1.4202,0,-1.4092,-1.4103,-1.4171,-1.4163,-1.4173,-1.4203,-1.4216,-1.4236,-1.4237,-1.4227,-1.4236,-1.4207,-1.4245,-1.4192,-1.4244,-1.4203,-1.4215,-1.4213,-1.4216,-1.4221,-1.4163,-1.4258,-1.4406,-1.4422,-1.4222,-1.422,-1.4219,0,-1.4199,-1.4229,-1.4275,-1.4278,-1.4269,-1.4292,-1.4289,-1.4288,-1.43,-1.4311,-1.4319,-1.4335,-1.4345,-1.4359,-1.4336,-1.4299,-1.4393,-1.4337,-1.4388,-1.4389,-1.4413,-1.4412,-1.4568,-1.4415,-1.4415,-1.4415,-1.4415,0,-1.4315,-1.4359,-1.4322,-1.4351,-1.4399,-1.4366,-1.4415,-1.4408,-1.4407,-1.4434,-1.4394,-1.4421,-1.4387,-1.4411,-1.4393,-1.4441,-1.4445,-1.444,-1.4435,-1.4445,-1.4446,-1.4455,-1.4449,-1.4419,-1.4418,-1.4417,-1.4416,0,-1.4443,-1.4419,-1.4466,-1.4454,-1.4452,-1.4488,-1.4478,-1.4505,-1.449,-1.4526,-1.4532,-1.451,-1.4537,-1.4514,-1.4539,-1.4527,-1.4592,-1.4575,-1.4592,-1.4588,-1.4641,-1.4638,-1.4811,-1.4834,-1.4664,-1.4665,-1.4667,0,-1.4521,-1.4554,-1.4544,-1.4559,-1.4559,-1.4583,-1.4595,-1.4563,-1.4577,-1.4582,-1.4609,-1.4631,-1.4647,-1.4691,-1.4679,-1.4699,-1.4685,-1.4744,-1.4688,-1.4698,-1.469,-1.469,-1.4694,-1.4757,-1.4759,-1.4761,-1.4762,0,-1.4662,-1.4648,-1.4666,-1.4681,-1.4696,-1.4706,-1.4713,-1.4727,-1.4695,-1.4713,-1.4739,-1.4751,-1.4777,-1.4801,-1.4816,-1.4815,-1.4785,-1.4779,-1.4792,-1.4805,-1.4814,-1.4813,-1.4626,-1.4776,-1.4775,-1.4774,-1.4773,-1.4772,-1.4769,-1.4797,-1.4795,-1.4817,-1.4818,-1.4826,-1.4851,-1.4839,-1.4859,-1.4877,-1.4857,-1.4889,-1.4891,-1.4908,-1.4911,-1.4937,-1.4913,-1.4931,-1.4937,-1.4943,-1.4952,-1.4807,-1.4939,-1.4939,-1.4938,-1.4938,-1.4938,0,-1.4911,-1.4907,-1.4927,-1.4938,-1.4955,-1.4922,-1.4928,-1.4946,-1.4974,-1.4977,-1.4994,-1.5025,-1.5048,-1.5037,-1.5057,-1.508,-1.5067,-1.5087,-1.5087,-1.5088,-1.4971,-1.4959,-1.5098,-1.5098,-1.5098,-1.5097,-1.5097,-1.5097,-1.4987,-1.5033,-1.5019,-1.5067,-1.5062,-1.5093,-1.51,-1.5107,-1.511,-1.5145,-1.5164,-1.5156,-1.5154,-1.5174,-1.5194,-1.519,-1.5201,-1.5228,-1.5219,-1.5111,-1.5096,-1.5081,-1.5069,-1.5229,-1.5229,-1.5334,-1.5335,-1.5336]},{"header":{"parameterUnit":"m.s-1","parameterCategory":1,"la1":30.2991,"la2":30.254,"lo1":-89.0895,"lo2":-89.0444,"dy":0.0017,"dx":0.0017,"nx":28,"ny":28,"refTime":"2024-12-08T03:00:00:Z","depth":0,"parameterNumber":3,"parameterNumberName":"V-component_of_WINDS"},"data":[0,0,0,0,0,0,0,0,0,0,0,0,0,0,0,0,0,0,0,0,0,0,0,0,0,0,0,0,0,0,0,0,0,0,0,0,0,0,0,0,0,0,0,0,0,0,0,0,0,0,0,0,0,0,0,0,0,0,-1.1493,-1.1493,0,-1.1509,-1.1509,-1.1509,-1.149,-1.1489,-1.1489,-1.1488,-1.1505,-1.1506,-1.1507,0,0,0,0,0,0,0,0,0,0,0,0,0,-1.1445,-1.1446,-1.1493,-1.1493,-1.1493,-1.1509,-1.1509,-1.1509,-1.149,-1.1489,-1.1488,-1.1488,-1.1504,-1.1505,-1.1507,0,0,0,0,0,0,0,0,0,0,0,0,0,-1.1464,-1.1447,-1.1493,-1.1486,-1.1485,-1.1509,-1.1509,-1.151,-1.149,-1.1489,-1.1488,-1.1487,-1.1504,-1.1505,-1.1507,-1.1539,0,0,-1.1512,-1.1513,0,0,0,0,0,0,0,0,-1.1463,-1.1466,-1.1486,-1.1486,-1.1486,-1.1496,-1.1499,-1.1519,-1.1491,-1.1488,-1.1488,-1.1487,-1.1503,-1.1504,-1.151,-1.154,-1.154,-1.1512,-1.1513,-1.1514,-1.1514,0,0,0,0,0,0,0,-1.1462,-1.1465,-1.1499,-1.1487,-1.1486,-1.1482,-1.1483,-1.1502,-1.1501,-1.1488,-1.1487,-1.1489,-1.1502,-1.1508,-1.151,-1.1541,-1.1512,-1.1514,-1.1515,-1.1515,-1.1599,-1.16,0,0,0,0,0,0,-1.1461,-1.1464,-1.1499,-1.15,-1.1471,-1.1483,-1.1485,-1.1494,-1.1501,-1.1501,-1.149,-1.1488,-1.1506,-1.1508,-1.1511,-1.155,-1.1514,-1.1515,-1.1516,-1.1598,-1.1599,-1.16,0,0,0,0,0,0,-1.146,-1.1465,-1.1498,-1.1482,-1.1485,-1.1485,-1.1496,-1.1495,-1.1501,-1.1502,-1.1502,-1.1497,-1.1505,-1.1508,-1.1532,-1.155,-1.1516,-1.1518,-1.1596,-1.1598,-1.16,-1.1628,0,0,0,0,0,0,-1.1459,-1.1464,-1.1477,-1.1482,-1.1486,-1.152,-1.1497,-1.1496,-1.1504,-1.1502,-1.1508,-1.1508,-1.1505,-1.153,-1.1534,-1.1552,-1.1519,-1.1595,-1.1597,-1.1599,-1.1625,-1.163,-1.1635,0,0,0,0,0,-1.1458,-1.1483,-1.1477,-1.1482,-1.1502,-1.1521,-1.1523,-1.1518,-1.1505,-1.1518,-1.1519,-1.1508,-1.1547,-1.1533,-1.1537,-1.1555,-1.1593,-1.1596,-1.1599,-1.1623,-1.1629,-1.1634,0,0,0,0,0,0,-1.148,-1.1484,-1.1477,-1.1506,-1.1513,-1.1517,-1.1533,-1.1525,-1.1536,-1.1533,-1.1527,-1.1528,-1.1554,-1.1557,-1.1541,-1.1587,-1.1568,-1.1572,-1.1585,-1.1591,-1.1595,-1.1595,-1.152,0,0,0,0,0,-1.1488,-1.1503,-1.1506,-1.1531,-1.1535,-1.1533,-1.1541,-1.1537,-1.1544,-1.1547,-1.155,-1.1558,-1.1572,-1.1581,-1.1594,-1.1625,-1.1627,-1.164,-1.1644,-1.1648,-1.1652,-1.167,-1.1677,-1.1609,-1.1609,-1.1609,0,0,-1.1505,-1.1509,-1.1519,-1.1535,-1.1541,-1.1557,-1.1536,-1.1554,-1.1566,-1.155,-1.1574,-1.1576,-1.1584,-1.1612,-1.1624,-1.1615,-1.1671,-1.1652,-1.1655,-1.1657,-1.1674,-1.168,-1.1686,-1.1611,-1.1611,-1.1611,0,0,-1.1545,-1.1549,-1.1571,-1.1577,-1.1585,-1.1584,-1.1589,-1.1595,-1.1596,-1.1619,-1.1608,-1.1622,-1.1646,-1.1653,-1.1659,-1.1702,-1.1694,-1.1706,-1.1732,-1.1749,-1.1755,-1.1759,-1.1777,-1.1783,-1.171,-1.171,-1.171,0,-1.1566,-1.159,-1.1583,-1.1603,-1.1611,-1.1597,-1.1619,-1.1625,-1.1637,-1.1643,-1.1632,-1.1662,-1.1666,-1.1697,-1.1707,-1.1712,-1.1719,-1.1707,-1.1754,-1.1759,-1.1763,-1.178,-1.1786,-1.1712,-1.1711,-1.1711,-1.1711,0,-1.1616,-1.1633,-1.1649,-1.1662,-1.1671,-1.1692,-1.1689,-1.1699,-1.1694,-1.1694,-1.1718,-1.1723,-1.1737,-1.1743,-1.1738,-1.1773,-1.1768,-1.1755,-1.1736,-1.1772,-1.1787,-1.1793,-1.1714,-1.1713,-1.1713,-1.1713,0,0,-1.1671,-1.168,-1.1687,-1.1693,-1.1701,-1.1714,-1.1734,-1.1748,-1.1758,-1.1766,-1.1784,-1.1804,-1.1794,-1.1801,-1.1796,-1.1812,-1.1848,-1.1798,-1.1798,-1.1809,-1.1889,-1.1899,-1.1907,-1.1841,-1.1842,-1.1843,-1.1889,0,-1.1713,-1.1749,-1.1744,-1.1778,-1.1794,-1.1781,-1.1799,-1.1806,-1.1806,-1.182,-1.182,-1.1836,-1.182,-1.1824,-1.1839,-1.184,-1.1864,-1.1836,-1.1859,-1.1859,-1.1859,-1.1914,-1.1925,-1.1968,-1.1894,-1.1895,-1.1896,0,-1.1767,-1.1778,-1.1815,-1.1821,-1.1828,-1.1844,-1.1857,-1.187,-1.1878,-1.1877,-1.1886,-1.1878,-1.1899,-1.1878,-1.1907,-1.1889,-1.1897,-1.1899,-1.1901,-1.1904,-1.1882,-1.1921,-1.1982,-1.1989,-1.1905,-1.1904,-1.1904,0,-1.1807,-1.1831,-1.1856,-1.1861,-1.1869,-1.1881,-1.1885,-1.1891,-1.19,-1.1911,-1.1918,-1.1931,-1.1939,-1.1949,-1.1946,-1.193,-1.1976,-1.1954,-1.1977,-1.1977,-1.1989,-1.1989,-1.2054,-1.1991,-1.1991,-1.1991,-1.1991,0,-1.1855,-1.1879,-1.1874,-1.189,-1.1916,-1.1909,-1.1935,-1.1937,-1.1943,-1.1959,-1.1948,-1.1963,-1.1957,-1.1972,-1.1969,-1.1994,-1.1997,-1.1998,-1.1997,-1.2,-1.2001,-1.2007,-1.2005,-1.1992,-1.1992,-1.1992,-1.1991,0,-1.1905,-1.1902,-1.193,-1.1935,-1.1937,-1.1956,-1.196,-1.1975,-1.1974,-1.1995,-1.1999,-1.1999,-1.2016,-1.2013,-1.2032,-1.203,-1.2062,-1.2057,-1.206,-1.206,-1.2083,-1.2082,-1.2157,-1.2167,-1.2096,-1.2096,-1.2097,0,-1.1937,-1.1955,-1.1962,-1.1972,-1.1977,-1.1993,-1.2003,-1.1997,-1.2007,-1.2018,-1.2032,-1.2048,-1.2061,-1.2089,-1.2091,-1.2105,-1.2101,-1.2126,-1.2104,-1.2106,-1.2104,-1.2104,-1.2107,-1.2132,-1.2133,-1.2133,-1.2134,0,-1.1995,-1.1993,-1.2007,-1.2022,-1.2033,-1.2044,-1.2054,-1.2063,-1.2057,-1.207,-1.2088,-1.2098,-1.2117,-1.2134,-1.2148,-1.2152,-1.2143,-1.2141,-1.2147,-1.2151,-1.2154,-1.2155,-1.2075,-1.2139,-1.2139,-1.2138,-1.2138,-1.2138,-1.2038,-1.2054,-1.2062,-1.2079,-1.2085,-1.2095,-1.211,-1.2111,-1.2126,-1.2142,-1.2137,-1.2157,-1.2165,-1.2183,-1.2188,-1.2204,-1.2195,-1.2204,-1.2207,-1.2209,-1.2213,-1.2149,-1.2207,-1.2206,-1.2206,-1.2206,-1.2206,0,-1.2098,-1.2102,-1.2117,-1.2132,-1.2145,-1.2134,-1.2144,-1.2156,-1.2175,-1.2183,-1.2196,-1.2217,-1.2233,-1.2236,-1.2251,-1.2264,-1.226,-1.2268,-1.2268,-1.227,-1.222,-1.2214,-1.2271,-1.2271,-1.2271,-1.2271,-1.2271,-1.2271,-1.213,-1.2157,-1.2156,-1.2186,-1.219,-1.2211,-1.2218,-1.2227,-1.2233,-1.2257,-1.2271,-1.2272,-1.2279,-1.2295,-1.2309,-1.231,-1.2317,-1.2327,-1.2326,-1.228,-1.2273,-1.2267,-1.2261,-1.2328,-1.2328,-1.2375,-1.2376,-1.2376]}]]